Time,TemperatureF,DewpointF,PressureIn,WindDirection,WindDirectionDegrees,WindSpeedMPH,WindSpeedGustMPH,Humidity,HourlyPrecipIn,Conditions,Clouds,dailyrainin,SolarRadiationWatts/m^2,SoftwareType,DateUTC
2013-10-10 00:03:00,67.0,53.0,-100.00,SE,139,6.0,9.0,61,0.00,,,0.00,0.000000,,2013-10-10 05:03:00,
2013-10-10 00:43:00,65.0,51.0,-100.00,SE,129,5.0,10.0,61,0.00,,,0.00,0.000000,,2013-10-10 05:43:00,
2013-10-10 00:53:00,65.0,51.0,-100.00,SE,129,5.0,10.0,61,0.00,,,0.00,0.000000,,2013-10-10 05:53:00,
2013-10-10 01:03:00,65.0,51.0,-100.00,SE,129,5.0,10.0,61,0.00,,,0.00,0.000000,,2013-10-10 06:03:00,
2013-10-10 01:43:00,65.0,53.0,-100.00,SE,138,7.0,11.0,64,0.00,,,-99.99,0.000000,,2013-10-10 06:43:00,
2013-10-10 01:53:00,65.0,53.0,-100.00,SE,138,7.0,11.0,64,0.00,,,-99.99,0.000000,,2013-10-10 06:53:00,
2013-10-10 02:02:00,65.0,53.0,-100.00,SE,138,7.0,11.0,64,0.00,,,-99.99,0.000000,,2013-10-10 07:02:00,
2013-10-10 02:42:00,65.0,53.0,-100.00,SE,140,7.0,11.0,64,0.00,,,-99.99,0.000000,,2013-10-10 07:42:00,
2013-10-10 02:52:00,65.0,53.0,-100.00,SE,140,7.0,11.0,64,0.00,,,-99.99,0.000000,,2013-10-10 07:52:00,
2013-10-10 03:02:00,65.0,53.0,-100.00,SE,140,7.0,11.0,64,0.00,,,-99.99,0.000000,,2013-10-10 08:02:00,
2013-10-10 03:43:00,63.0,52.0,-100.00,SE,145,7.0,11.0,67,0.00,,,0.00,0.000000,,2013-10-10 08:43:00,
2013-10-10 03:52:00,63.0,52.0,-100.00,SE,145,7.0,11.0,67,0.00,,,0.00,0.000000,,2013-10-10 08:52:00,
2013-10-10 04:02:00,63.0,52.0,-100.00,SE,145,7.0,11.0,67,0.00,,,0.00,0.000000,,2013-10-10 09:02:00,
2013-10-10 04:43:00,63.0,53.0,-100.00,SSE,152,7.0,11.0,71,0.00,,,0.00,0.000000,,2013-10-10 09:43:00,
2013-10-10 04:53:00,63.0,53.0,-100.00,SSE,152,7.0,11.0,71,0.00,,,0.00,0.000000,,2013-10-10 09:53:00,
2013-10-10 05:03:00,63.0,53.0,-100.00,SSE,152,7.0,11.0,71,0.00,,,0.00,0.000000,,2013-10-10 10:03:00,
2013-10-10 05:43:00,64.0,56.0,-100.00,SSE,163,10.0,15.0,75,0.00,,,0.00,0.000000,,2013-10-10 10:43:00,
2013-10-10 05:53:00,64.0,56.0,-100.00,SSE,163,10.0,15.0,75,0.00,,,0.00,0.000000,,2013-10-10 10:53:00,
2013-10-10 06:03:00,64.0,56.0,-100.00,SSE,163,10.0,15.0,75,0.00,,,0.00,0.000000,,2013-10-10 11:03:00,
2013-10-10 09:42:00,68.0,60.0,-100.00,South,174,7.0,13.0,76,-99.99,,,0.00,36.000000,,2013-10-10 14:42:00,
2013-10-10 09:52:00,68.0,60.0,-100.00,South,174,7.0,13.0,76,-99.99,,,0.00,36.000000,,2013-10-10 14:52:00,
2013-10-10 10:02:00,68.0,60.0,-100.00,South,174,7.0,13.0,76,-99.99,,,0.00,36.000000,,2013-10-10 15:02:00,
2013-10-10 10:43:00,74.0,63.0,-100.00,SSE,166,8.0,13.0,68,0.00,,,0.00,184.000000,,2013-10-10 15:43:00,
2013-10-10 10:54:00,74.0,63.0,-100.00,SSE,166,8.0,13.0,68,0.00,,,0.00,184.000000,,2013-10-10 15:54:00,
2013-10-10 11:03:00,74.0,63.0,-100.00,SSE,166,8.0,13.0,68,0.00,,,0.00,184.000000,,2013-10-10 16:03:00,
2013-10-10 11:42:00,78.0,62.0,-100.00,South,179,8.0,14.0,57,0.00,,,0.00,613.000000,,2013-10-10 16:42:00,
2013-10-10 11:53:00,78.0,62.0,-100.00,South,179,8.0,14.0,57,0.00,,,0.00,613.000000,,2013-10-10 16:53:00,
2013-10-10 12:02:00,78.0,62.0,-100.00,South,179,8.0,14.0,57,0.00,,,0.00,613.000000,,2013-10-10 17:02:00,
2013-10-10 12:42:00,80.0,62.0,-100.00,SSE,165,9.0,15.0,55,0.00,,,0.00,732.000000,,2013-10-10 17:42:00,
2013-10-10 12:53:00,80.0,62.0,-100.00,SSE,165,9.0,15.0,55,0.00,,,0.00,732.000000,,2013-10-10 17:53:00,
2013-10-10 13:02:00,80.0,62.0,-100.00,SSE,165,9.0,15.0,55,0.00,,,0.00,732.000000,,2013-10-10 18:02:00,
2013-10-10 13:42:00,82.0,60.0,-100.00,SSE,164,10.0,15.0,47,0.00,,,0.00,771.000000,,2013-10-10 18:42:00,
2013-10-10 13:52:00,82.0,60.0,-100.00,SSE,164,10.0,15.0,47,0.00,,,0.00,771.000000,,2013-10-10 18:52:00,
2013-10-10 14:01:00,82.0,60.0,-100.00,SSE,164,10.0,15.0,47,0.00,,,0.00,771.000000,,2013-10-10 19:01:00,
2013-10-10 14:42:00,84.0,60.0,-100.00,SSE,148,7.0,15.0,45,0.00,,,0.00,793.000000,,2013-10-10 19:42:00,
2013-10-10 14:53:00,84.0,60.0,-100.00,SSE,148,7.0,15.0,45,0.00,,,0.00,793.000000,,2013-10-10 19:53:00,
2013-10-10 15:02:00,84.0,60.0,-100.00,SSE,148,7.0,15.0,45,0.00,,,0.00,793.000000,,2013-10-10 20:02:00,
2013-10-10 15:42:00,85.0,59.0,-100.00,SSE,154,8.0,16.0,42,0.00,,,0.00,717.000000,,2013-10-10 20:42:00,
2013-10-10 15:52:00,85.0,59.0,-100.00,SSE,154,8.0,16.0,42,0.00,,,0.00,717.000000,,2013-10-10 20:52:00,
2013-10-10 16:03:00,85.0,59.0,-100.00,SSE,154,8.0,16.0,42,0.00,,,0.00,717.000000,,2013-10-10 21:03:00,
2013-10-10 16:44:00,84.0,58.0,-100.00,SSE,164,9.0,17.0,41,0.00,,,0.00,671.000000,,2013-10-10 21:44:00,
2013-10-10 16:54:00,84.0,58.0,-100.00,SSE,164,9.0,17.0,41,0.00,,,0.00,671.000000,,2013-10-10 21:54:00,
2013-10-10 17:04:00,84.0,58.0,-100.00,SSE,164,9.0,17.0,41,0.00,,,0.00,671.000000,,2013-10-10 22:04:00,
2013-10-10 17:43:00,84.0,58.0,-100.00,SSE,150,7.0,14.0,41,0.00,,,0.00,501.000000,,2013-10-10 22:43:00,
2013-10-10 17:53:00,84.0,58.0,-100.00,SSE,150,7.0,14.0,41,0.00,,,0.00,501.000000,,2013-10-10 22:53:00,
2013-10-10 18:03:00,84.0,58.0,-100.00,SSE,150,7.0,14.0,41,0.00,,,0.00,501.000000,,2013-10-10 23:03:00,
2013-10-10 18:43:00,82.0,57.0,-100.00,SSE,148,8.0,16.0,43,0.00,,,0.00,282.000000,,2013-10-10 23:43:00,
2013-10-10 18:53:00,82.0,57.0,-100.00,SSE,148,8.0,16.0,43,0.00,,,0.00,282.000000,,2013-10-10 23:53:00,
2013-10-10 19:02:00,82.0,57.0,-100.00,SSE,148,8.0,16.0,43,0.00,,,0.00,282.000000,,2013-10-11 00:02:00,
2013-10-10 19:42:00,77.0,56.0,-100.00,SE,144,5.0,14.0,49,0.00,,,0.00,61.000000,,2013-10-11 00:42:00,
2013-10-10 19:52:00,77.0,56.0,-100.00,SE,144,5.0,14.0,49,0.00,,,0.00,61.000000,,2013-10-11 00:52:00,
2013-10-10 20:01:00,77.0,56.0,-100.00,SE,144,5.0,14.0,49,0.00,,,0.00,61.000000,,2013-10-11 01:01:00,
2013-10-10 20:42:00,75.0,58.0,-100.00,SE,142,6.0,10.0,56,0.00,,,0.00,1.000000,,2013-10-11 01:42:00,
2013-10-10 20:52:00,75.0,58.0,-100.00,SE,142,6.0,10.0,56,0.00,,,0.00,1.000000,,2013-10-11 01:52:00,
2013-10-10 21:02:00,75.0,58.0,-100.00,SE,142,6.0,10.0,56,0.00,,,0.00,1.000000,,2013-10-11 02:02:00,
2013-10-10 21:42:00,73.0,58.0,-100.00,SE,133,6.0,11.0,59,0.00,,,0.00,0.000000,,2013-10-11 02:42:00,
2013-10-10 21:52:00,73.0,58.0,-100.00,SE,133,6.0,11.0,59,0.00,,,0.00,0.000000,,2013-10-11 02:52:00,
2013-10-10 22:02:00,73.0,58.0,-100.00,SE,133,6.0,11.0,59,0.00,,,0.00,0.000000,,2013-10-11 03:02:00,
2013-10-10 22:45:00,72.0,59.0,-100.00,SE,138,6.0,11.0,63,0.00,,,0.00,0.000000,,2013-10-11 03:45:00,
2013-10-10 22:54:00,72.0,59.0,-100.00,SE,138,6.0,11.0,63,0.00,,,0.00,0.000000,,2013-10-11 03:54:00,
2013-10-10 23:04:00,72.0,59.0,-100.00,SE,138,6.0,11.0,63,0.00,,,0.00,0.000000,,2013-10-11 04:04:00,
2013-10-10 23:44:00,72.0,60.0,-100.00,SE,138,6.0,13.0,65,0.00,,,0.00,1.000000,,2013-10-11 04:44:00,
2013-10-10 23:53:00,72.0,60.0,-100.00,SE,138,6.0,13.0,65,0.00,,,0.00,1.000000,,2013-10-11 04:53:00,